Location: Centocelle
(41.8833°N, 12.5667°E)
Time: 20:19:46
(UTC+00:00)

Daily predictions for brighter satellites

Satellite Brightness Start Highest point End
(mag) Time Altitude Azimuth Time Altitude Azimuth Time Altitude Azimuth
PAYLOAD B 4.4 16:28:16 10° SE 16:33:37 51° ENE 16:39:01 10° N
PSLV R/B 3.9 16:30:38 10° SSE 16:34:30 53° ENE 16:38:19 10° N
Cosmos 304 Rocket 3.8 16:30:05 10° S 16:34:48 66° ESE 16:39:35 10° NNE
CZ-2D R/B 3.8 16:32:33 10° SE 16:36:08 37° ENE 16:39:44 10° N
ATLAS 5 CENTAUR R/B 3.9 16:34:21 10° WNW 16:36:45 15° NNW 16:39:18 10° N
FengYun 1-2 T 4.4 16:31:21 10° SSE 16:37:00 84° WSW 16:42:42 10° NNW
Meteor 1-4 Rocket 3.0 16:36:14 10° SSE 16:39:26 36° E 16:42:38 10° NNE
Cosmos 1455 Rocket 3.6 16:35:32 10° SSW 16:39:55 66° W 16:44:23 10° N
Cosmos 2237 4.3 16:35:37 10° S 16:41:16 65° ESE 16:46:57 10° NNE
Cosmos 1455 3.9 16:39:37 10° ESE 16:41:25 13° E 16:43:13 10° ENE
MOS 1-B 4.4 16:37:12 10° SSE 16:42:52 59° ENE 16:48:32 10° N
CORIOLIS 4.1 16:37:59 10° SSE 16:43:19 84° ENE 16:48:41 10° NNW
YAOGAN 1 4.3 16:41:39 10° E 16:43:50 14° ENE 16:46:01 10° NNE
FALCON 9 DEB 2.8 16:41:51 10° WSW 16:44:46 74° NW 16:47:43 10° NE
SKYMED 2 4.3 16:41:13 10° NNE 16:45:09 33° E 16:49:05 10° SSE
Cosmos 1939 Rocket 3.1 16:41:24 10° S 16:45:22 75° WSW 16:49:25 10° NNW
NOSS 3-1 (A) 3.2 16:41:06 10° SSW 16:46:17 83° ESE 16:52:20 10° NE
Cosmos 1825 4.0 16:45:08 10° NE 16:46:30 12° ENE 16:47:53 10° E
Cosmos 1300 2.8 16:47:38 10° S 16:51:26 81° W 16:55:15 10° N
AQUARIUS 4.4 16:48:39 10° S 16:53:07 76° WSW 16:57:38 10° NNW
USA 267 3.6 16:47:15 10° ESE 16:53:30 49° NNE 16:59:45 10° NW
Cosmos 1544 Rocket 3.7 16:50:28 10° S 16:54:55 81° W 16:59:25 10° N
Cosmos 2278 Rocket 4.1 16:54:53 10° NE 16:55:05 10° NE 16:55:17 10° NE
Cosmos 1328 4.3 16:52:45 10° NNW 16:56:47 66° W 17:00:46 10° S
FALCON 9 DEB 3.0 16:55:04 10° SW 16:58:29 82° SE 17:01:30 13° NE
Cosmos 1605 Rocket 4.1 16:52:40 10° S 16:58:51 61° E 17:05:08 10° NNE
COSMOS 2428 3.9 16:55:12 10° SSE 16:59:18 21° E 17:03:24 10° NE
SL-16 R/B 3.0 16:55:44 10° SW 17:01:15 53° WNW 17:06:49 10° NNE
deb Chang Zheng 4 3.4 16:57:06 10° SSE 17:01:15 66° ENE 17:05:28 10° N
FALCON 9 DEB 2.8 17:01:15 10° WSW 17:04:11 73° NW 17:06:32 15° NE
Cosmos 332 Rocket 4.4 17:03:05 10° SSW 17:07:54 60° WNW 17:12:44 10° NNE
NOSS 3-1 (C) 4.4 17:03:34 10° WSW 17:08:35 41° NW 17:14:25 10° NNE
Cosmos 2322 Rocket 2.8 17:05:01 10° SW 17:10:31 58° WNW 17:16:05 10° NNE
ARGOS 3.3 17:06:13 10° SE 17:11:24 50° ENE 17:16:37 10° N
Cosmos 2219 Rocket 2.8 17:06:42 10° SSE 17:11:40 34° ESE 17:16:40 10° NE
SWARM A 4.2 17:09:24 10° SSE 17:12:37 54° E 17:15:51 10° N
H-2A R/B 2.2 17:10:25 10° SSE 17:15:50 88° ENE 17:21:20 10° NNW
FALCON 9 DEB 3.2 17:14:06 10° WSW 17:17:01 58° NW 17:18:50 20° NE
Cosmos 2360 Rocket 2.2 17:11:36 10° SSW 17:17:14 85° WNW 17:22:57 10° NNE
MOS 1-B Rocket 3.9 17:11:25 10° NNE 17:17:34 65° E 17:23:09 10° S
Lacrosse 5 3.3 17:14:55 10° SSE 17:18:26 19° ESE 17:19:23 18° ESE
H-2A R/B 3.1 17:15:00 10° SE 17:18:47 34° ENE 17:22:29 10° N
CZ-4 R/B 4.4 17:15:37 10° SSE 17:19:40 58° ENE 17:23:43 10° N
Cosmos 1140 Rocket 4.0 17:15:11 10° N 17:20:03 38° ENE 17:24:54 10° SE
Cosmos 1726 Rocket 4.4 17:17:09 10° SSE 17:20:54 27° E 17:24:41 10° NNE
Cosmos 1408 2.5 17:19:23 10° N 17:22:54 55° E 17:26:23 10° SSE
Cosmos 1602 Rocket 3.5 17:18:53 10° N 17:23:14 90° E 17:27:32 10° S
Cosmos 1844 3.6 17:20:39 10° NNW 17:26:26 72° ENE 17:32:06 10° SSE
Okean O Rocket 1.5 17:24:04 10° SSE 17:28:25 87° ENE 17:32:48 10° NNW
Cosmos 1932 4.4 17:24:08 10° NNW 17:30:24 86° ENE 17:36:42 10° SSE
Cosmos 407 Rocket 3.7 17:25:14 10° N 17:30:26 50° ENE 17:35:37 10° SE
NOSS 2-2 (D) 3.0 17:27:06 10° SSW 17:30:28 55° ESE 17:31:43 33° ENE
X-37B 3.3 17:29:12 10° WSW 17:30:54 14° SW 17:32:34 10° S
Iridium 4 Rocket 4.4 17:28:12 10° NNW 17:32:58 51° W 17:38:09 10° SSW
COSMO-SKYMED 1 2.8 17:28:58 10° N 17:33:18 72° WNW 17:37:37 10° SSW
CZ-2C R/B 2.7 17:28:19 10° NNE 17:33:54 89° ESE 17:39:19 10° SSW
Cosmos 2228 2.9 17:30:23 10° S 17:34:44 68° E 17:39:07 10° NNE
Cosmos 614 Rocket 4.5 17:32:48 10° NNW 17:37:49 61° WSW 17:42:50 10° S
SJ-11-01 4.2 17:33:09 10° SSE 17:37:50 90° ENE 17:42:36 10° NNW
IRAS Rocket 4.2 17:32:39 10° NNE 17:38:07 58° ESE 17:43:31 10° S
Cosmos 2333 Rocket 2.1 17:32:39 10° SSW 17:38:17 71° ESE 17:43:59 10° NNE
CZ-4B R/B 3.7 17:32:51 10° S 17:38:28 65° WSW 17:44:06 10° NNW
In-Cosmos 22 Rocket 4.1 17:33:22 10° NNW 17:38:41 83° W 17:44:02 10° S
Meteor 2-10 Rocket 4.1 17:33:24 10° SSW 17:38:51 63° WNW 17:44:06 10° N
NOSS 2-2 (E) 2.9 17:35:34 10° SW 17:38:55 82° NW 17:40:31 29° NNE
Tiangong 2.8 17:38:58 10° W 17:41:46 27° SSW 17:43:00 21° SSE
DMSP B5D2-2 4.3 17:37:04 10° NNE 17:42:05 45° E 17:47:03 10° S
CZ-4C R/B 2.9 17:38:50 10° N 17:42:06 72° WNW 17:45:16 10° SSW
Cosmos 1825 Rocket 3.4 17:40:15 10° N 17:44:33 61° E 17:48:48 10° SSE
Cosmos 2251 Rocket 4.2 17:40:54 10° NNW 17:46:02 56° WSW 17:51:07 10° S
Cosmos 1892 3.2 17:44:23 10° NNW 17:48:05 58° W 17:51:46 10° S
CSL-04 Rocket 4.4 17:48:03 32° ENE 17:48:18 32° ENE 17:53:11 10° N
Cosmos 1420 Rocket 4.4 17:46:26 10° S 17:51:14 39° ESE 17:51:20 39° E
Lacrosse 4 Rocket 4.1 17:48:55 10° WNW 17:52:16 22° WSW 17:55:39 10° SSW
DELTA 2 R/B (1) 4.5 17:47:30 10° SW 17:52:23 31° SSE 17:53:27 29° SE
DMSP B5D1-3 4.5 17:48:00 10° NNE 17:53:06 59° E 17:58:10 10° S
Cosmos 1758 Rocket 3.9 17:49:06 10° NNW 17:53:24 65° W 17:57:43 10° S
CZ-4C R/B 2.1 17:51:10 10° S 17:55:37 48° ESE 17:56:17 45° E
NOSS 5 (C) 4.3 17:53:09 10° NW 17:56:20 83° NE 17:56:21 83° ENE
OAO 3 Rocket 4.1 17:52:22 10° WSW 17:56:45 37° S 17:57:56 31° SSE
Cosmos 2322 3.6 17:51:22 10° SSW 17:57:05 89° ESE 18:02:40 11° NNE
Okean-O 3.4 18:00:16 35° NNE 18:00:16 35° NNE 18:03:15 10° N
Cosmos 1953 Rocket 3.5 17:56:02 10° N 18:00:28 59° E 18:00:34 59° E
USA 215 4.2 17:58:11 14° NE 18:03:14 40° NNW 18:09:14 10° W
CZ-4 R/B 1.3 18:01:16 21° SSE 18:03:54 87° WSW 18:08:04 10° NNW
Cosmos 1844 Rocket 3.7 17:59:41 10° NW 18:04:59 46° WSW 18:10:16 10° S
Cosmos 2061 Rocket 4.2 18:00:44 10° SSE 18:06:42 45° E 18:12:44 10° NNE
Cosmos 1459 Rocket 3.8 18:04:07 10° S 18:10:17 78° E 18:16:24 10° N
SL-8 R/B 4.0 18:11:05 10° WNW 18:15:43 52° NNE 18:15:43 52° NNE
Cosmos 1818 4.1 18:10:36 10° S 18:14:32 40° SSE 18:14:32 40° SSE
Cosmos 1455 3.5 18:13:02 10° SSW 18:16:35 38° WNW 18:20:10 10° N
Cosmos 2056 Rocket 3.4 18:13:09 10° SSW 18:18:16 82° WNW 18:20:43 32° NNE
Cosmos 1190 Rocket 3.9 18:13:16 10° NNW 18:18:30 88° WSW 18:20:02 48° SSE
YAOGAN 1 3.1 18:15:10 10° S 18:19:25 59° W 18:23:43 10° NNW
Cosmos 292 Rocket 3.9 18:14:36 10° SSW 18:19:26 71° WNW 18:21:44 31° N
H-2A R/B 2.3 18:20:27 58° SSW 18:20:27 58° SSW 18:23:54 10° SSW
Cosmos 1825 3.2 18:18:37 10° NNW 18:22:13 45° W 18:23:11 36° SW
Cosmos 2100 Rocket 4.1 18:18:38 10° SSW 18:24:57 75° W 18:31:21 10° N
Cosmos 2173 Rocket 4.1 18:24:16 10° SSW 18:30:28 72° W 18:36:47 10° N
USA 267 3.7 18:33:16 30° SSE 18:36:26 55° SW 18:42:51 10° NW
CENTAUR R/B 3.9 18:32:54 10° NNW 18:40:07 36° NE 18:40:07 36° NE
Cosmos 2278 Rocket 3.1 18:34:57 10° NNW 18:38:33 37° N 18:38:33 37° N
Cosmos 1802 Rocket 4.0 18:34:34 10° SSW 18:40:42 77° W 18:46:53 10° N
COSMOS 2428 3.2 18:37:31 10° SW 18:43:05 56° WNW 18:45:33 32° N
MetOp-A 4.2 18:44:20 71° WSW 18:44:29 71° WSW 18:49:51 10° NNW
NOSS 0 Rocket 4.3 18:39:03 10° SSW 18:43:33 50° S 18:43:33 50° S
Cosmos 2219 Rocket 3.6 18:50:28 10° WSW 18:55:33 35° WNW 18:58:58 19° N
NOSS 3-2 (A) 4.5 18:49:33 10° NNW 18:55:43 45° NNE 18:55:43 45° NNE
Lacrosse 5 3.3 18:55:47 10° SW 18:58:38 34° WSW 18:58:38 34° WSW
Milstar 3 Cent rocket 4.1 18:59:48 10° SW 19:05:10 34° S 19:05:10 34° S
Cosmos 2333 Rocket 4.5 19:19:03 10° W 19:23:09 20° NW 19:26:46 12° N
CZ-4C R/B 4.4 19:40:04 10° W 19:41:33 18° W 19:41:33 18° W
CENTAUR R/B 4.5 20:23:20 10° NW 20:27:18 33° NW 20:27:18 33° NW
